SCP
0 0 0 0 0 0 0 0 0 0 0 0 0 0 0 0 0 0 0 0 0 0
0 0 0 0 0 0 0 0 0 0 0 0 0 0 0 0 0 0 0 0 0 0
0 0 0 0 0 0 0 0 0 0 0 0 0 0 0 0 0 0 0 0 1 1
0 0 0 0 0 0 0 0 0 0 0 0 0 0 0 0 0 0 0 1 1 1
0 0 0 0 0 0 0 0 0 0 0 0 0 0 0 0 0 0 0 0 0 1
0 0 0 0 0 0 0 0 0 0 0 0 0 0 0 0 0 0 0 0 0 1
0 0 0 0 0 0 0 0 0 0 0 0 0 0 0 0 0 0 -0 -0 0 1
0 0 0 0 0 0 0 0 0 0 0 0 0 0 -0 0 -0 -0 -1 -0 0 0
0 0 0 0 0 0 0 0 0 0 0 0 0 -0 -0 0 -0 -0 -0 0 0 1
0 0 0 0 0 0 0 0 0 0 0 0 -0 -0 -0 -0 -0 -0 -0 0 0 0
0 0 0 0 0 0 0 0 0 0 0 0 0 0 0 -0 0 0 0 0 0 0
0 0 0 0 0 0 0 0 0 0 0 0 0 0 0 -0 0 0 0 0 0 0
0 0 0 0 0 0 0 0 0 0 0 0 -0 0 -0 -0 0 0 0 0 0 0
0 0 0 0 0 0 0 0 -0 0 0 -0 -0 0 -0 -0 0 0 0 0 0 0
Wind_Speed_500mb
79 79 76 75 73 75 79 81 81 82 85 86 80 76 69 68 67 78 82 81 85 95
82 81 77 71 73 76 79 79 78 80 83 90 91 87 79 76 73 76 82 86 85 86
85 82 75 73 74 75 79 79 80 80 83 85 88 88 84 83 76 82 95 90 84 101
81 72 69 73 75 76 80 82 82 79 83 84 83 85 86 86 87 82 95 100 101 107
74 69 69 72 70 69 77 80 81 80 83 82 81 80 82 89 90 88 91 108 111 114
75 73 71 72 73 77 79 82 83 82 84 83 80 82 84 90 89 90 100 109 117 124
75 72 73 74 75 78 81 87 87 86 88 86 80 85 88 91 92 83 104 105 122 128
73 73 73 71 75 82 89 90 89 88 88 85 78 88 85 83 78 97 113 120 116 126
71 72 78 80 81 83 86 85 88 92 86 79 77 83 81 85 78 96 105 95 139 125
72 75 78 80 81 86 91 93 97 91 85 74 71 73 77 71 102 102 111 95 121 125
72 74 74 77 80 83 86 85 87 89 77 66 64 59 67 86 60 84 99 119 123 114
67 70 73 74 78 77 78 79 75 68 58 54 59 61 52 59 65 70 74 93 108 109
62 62 68 71 73 70 64 64 51 49 52 60 74 68 54 67 49 57 93 98 102 94
59 57 58 57 51 55 45 47 54 50 77 68 66 77 63 64 34 62 70 71 76 85
Wind_Direction_500mb
319 319 313 305 300 295 295 297 293 287 277 278 278 281 280 278 279 267 253 252 238 233
320 319 315 308 300 297 298 299 296 289 282 273 273 275 279 278 275 270 248 251 238 235
320 316 312 307 302 297 297 300 298 291 285 279 271 269 274 276 271 270 250 243 239 224
319 316 310 305 302 299 299 298 298 296 290 282 272 266 271 272 271 262 246 242 233 221
317 314 308 306 303 301 299 298 297 294 290 282 272 268 273 272 271 261 251 239 231 222
315 312 308 305 306 303 301 300 296 292 291 284 275 269 271 275 271 258 253 240 226 212
314 314 312 310 308 305 301 301 298 292 290 288 275 269 276 273 268 252 238 240 220 203
318 317 317 313 309 305 301 301 300 297 294 289 271 270 282 285 272 259 249 237 205 201
323 322 321 316 311 306 302 302 302 302 301 292 271 269 286 276 262 249 254 222 197 198
325 322 319 318 314 309 303 301 300 299 300 294 273 277 293 261 266 240 228 208 183 197
326 323 321 319 316 315 311 305 301 300 300 290 277 293 288 299 244 218 186 197 195 195
328 325 326 323 320 318 315 307 303 301 304 298 296 289 292 290 256 212 196 181 191 194
328 329 331 334 335 333 317 308 308 320 334 307 292 293 280 268 259 194 199 199 197 203
331 333 336 345 352 346 345 353 1 343 340 318 293 290 289 290 233 210 208 208 198 203
Wind_Speed_850mb
79 79 76 75 73 75 79 81 81 82 85 86 80 76 69 68 67 78 82 81 85 95
82 81 77 71 73 76 79 79 78 80 83 90 91 87 79 76 73 76 82 86 85 86
85 82 75 73 74 75 79 79 80 80 83 85 88 88 84 83 76 82 95 90 84 101
81 72 69 73 75 76 80 82 82 79 83 84 83 85 86 86 87 82 95 100 101 107
74 69 69 72 70 69 77 80 81 80 83 82 81 80 82 89 90 88 91 108 111 114
75 73 71 72 73 77 79 82 83 82 84 83 80 82 84 90 89 90 100 109 117 124
75 72 73 74 75 78 81 87 87 86 88 86 80 85 88 91 92 83 104 105 122 128
73 73 73 71 75 82 89 90 89 88 88 85 78 88 85 83 78 97 113 120 116 126
71 72 78 80 81 83 86 85 88 92 86 79 77 83 81 85 78 96 105 95 139 125
72 75 78 80 81 86 91 93 97 91 85 74 71 73 77 71 102 102 111 95 121 125
72 74 74 77 80 83 86 85 87 89 77 66 64 59 67 86 60 84 99 119 123 114
67 70 73 74 78 77 78 79 75 68 58 54 59 61 52 59 65 70 74 93 108 109
62 62 68 71 73 70 64 64 51 49 52 60 74 68 54 67 49 57 93 98 102 94
59 57 58 57 51 55 45 47 54 50 77 68 66 77 63 64 34 62 70 71 76 85
Wind_Direction_850mb
319 319 313 305 300 295 295 297 293 287 277 278 278 281 280 278 279 267 253 252 238 233
320 319 315 308 300 297 298 299 296 289 282 273 273 275 279 278 275 270 248 251 238 235
320 316 312 307 302 297 297 300 298 291 285 279 271 269 274 276 271 270 250 243 239 224
319 316 310 305 302 299 299 298 298 296 290 282 272 266 271 272 271 262 246 242 233 221
317 314 308 306 303 301 299 298 297 294 290 282 272 268 273 272 271 261 251 239 231 222
315 312 308 305 306 303 301 300 296 292 291 284 275 269 271 275 271 258 253 240 226 212
314 314 312 310 308 305 301 301 298 292 290 288 275 269 276 273 268 252 238 240 220 203
318 317 317 313 309 305 301 301 300 297 294 289 271 270 282 285 272 259 249 237 205 201
323 322 321 316 311 306 302 302 302 302 301 292 271 269 286 276 262 249 254 222 197 198
325 322 319 318 314 309 303 301 300 299 300 294 273 277 293 261 266 240 228 208 183 197
326 323 321 319 316 315 311 305 301 300 300 290 277 293 288 299 244 218 186 197 195 195
328 325 326 323 320 318 315 307 303 301 304 298 296 289 292 290 256 212 196 181 191 194
328 329 331 334 335 333 317 308 308 320 334 307 292 293 280 268 259 194 199 199 197 203
331 333 336 345 352 346 345 353 1 343 340 318 293 290 289 290 233 210 208 208 198 203